Index of /20260428/WXO-DD/model_gdps/15km/00/219
Name Last modified Size Description
Parent Directory -
20260428T00Z_MSC_GDPS_AirTemp_AGL-120m_LatLon0.15_PT219H.grib2 2026-04-28 04:40 905K
20260428T00Z_MSC_GDPS_AirTemp_AGL-2m_LatLon0.15_PT219H.grib2 2026-04-28 04:40 1.0M
20260428T00Z_MSC_GDPS_AirTemp_AGL-40m_LatLon0.15_PT219H.grib2 2026-04-28 04:40 807K
20260428T00Z_MSC_GDPS_AirTemp_AGL-80m_LatLon0.15_PT219H.grib2 2026-04-28 04:40 796K
20260428T00Z_MSC_GDPS_AirTemp_IsbL-0001_LatLon0.15_PT219H.grib2 2026-04-28 04:40 661K
20260428T00Z_MSC_GDPS_AirTemp_IsbL-0005_LatLon0.15_PT219H.grib2 2026-04-28 04:40 692K
20260428T00Z_MSC_GDPS_AirTemp_IsbL-0500_LatLon0.15_PT219H.grib2 2026-04-28 04:40 770K
20260428T00Z_MSC_GDPS_AirTemp_IsbL-0700_LatLon0.15_PT219H.grib2 2026-04-28 04:40 949K
20260428T00Z_MSC_GDPS_AirTemp_IsbL-0850_LatLon0.15_PT219H.grib2 2026-04-28 04:40 1.1M
20260428T00Z_MSC_GDPS_AirTemp_IsbL-0925_LatLon0.15_PT219H.grib2 2026-04-28 04:40 1.1M
20260428T00Z_MSC_GDPS_AirTemp_IsbL-1000_LatLon0.15_PT219H.grib2 2026-04-28 04:40 1.1M
20260428T00Z_MSC_GDPS_Albedo_Sfc_LatLon0.15_PT219H.grib2 2026-04-28 04:40 243K
20260428T00Z_MSC_GDPS_ConvectivePrecip-Accum_Sfc_LatLon0.15_PT219H.grib2 2026-04-28 04:40 3.8M
20260428T00Z_MSC_GDPS_DewPointDepression_AGL-2m_LatLon0.15_PT219H.grib2 2026-04-28 04:40 766K
20260428T00Z_MSC_GDPS_DewPointDepression_IsbL-0500_LatLon0.15_PT219H.grib2 2026-04-28 04:40 1.0M
20260428T00Z_MSC_GDPS_DewPointDepression_IsbL-0700_LatLon0.15_PT219H.grib2 2026-04-28 04:40 1.1M
20260428T00Z_MSC_GDPS_DewPointDepression_IsbL-0850_LatLon0.15_PT219H.grib2 2026-04-28 04:40 1.2M
20260428T00Z_MSC_GDPS_DewPointDepression_IsbL-0925_LatLon0.15_PT219H.grib2 2026-04-28 04:40 1.0M
20260428T00Z_MSC_GDPS_DewPointDepression_IsbL-1000_LatLon0.15_PT219H.grib2 2026-04-28 04:40 1.0M
20260428T00Z_MSC_GDPS_DewPoint_AGL-2m_LatLon0.15_PT219H.grib2 2026-04-28 04:40 603K
20260428T00Z_MSC_GDPS_DownwardLongwaveRadiationFlux-Accum_Sfc_LatLon0.15_PT219H.grib2 2026-04-28 04:40 726K
20260428T00Z_MSC_GDPS_DownwardShortwaveRadiationFlux-Accum_Sfc_LatLon0.15_PT219H.grib2 2026-04-28 04:40 904K
20260428T00Z_MSC_GDPS_FreezingRain-Accum_Sfc_LatLon0.15_PT219H.grib2 2026-04-28 04:40 506K
20260428T00Z_MSC_GDPS_GeopotentialHeight_IsbL-0001_LatLon0.15_PT219H.grib2 2026-04-28 04:40 443K
20260428T00Z_MSC_GDPS_GeopotentialHeight_IsbL-0005_LatLon0.15_PT219H.grib2 2026-04-28 04:40 491K
20260428T00Z_MSC_GDPS_GeopotentialHeight_IsbL-0500_LatLon0.15_PT219H.grib2 2026-04-28 04:40 535K
20260428T00Z_MSC_GDPS_GeopotentialHeight_IsbL-0700_LatLon0.15_PT219H.grib2 2026-04-28 04:40 684K
20260428T00Z_MSC_GDPS_GeopotentialHeight_IsbL-0850_LatLon0.15_PT219H.grib2 2026-04-28 04:40 712K
20260428T00Z_MSC_GDPS_GeopotentialHeight_IsbL-0925_LatLon0.15_PT219H.grib2 2026-04-28 04:40 737K
20260428T00Z_MSC_GDPS_GeopotentialHeight_IsbL-1000_LatLon0.15_PT219H.grib2 2026-04-28 04:40 788K
20260428T00Z_MSC_GDPS_IcePellets-Accum_Sfc_LatLon0.15_PT219H.grib2 2026-04-28 04:40 166K
20260428T00Z_MSC_GDPS_LatentHeatNetFlux_Sfc_LatLon0.15_PT219H.grib2 2026-04-28 04:40 686K
20260428T00Z_MSC_GDPS_NetLongwaveRadiationFlux-Accum_Sfc_LatLon0.15_PT219H.grib2 2026-04-28 04:40 918K
20260428T00Z_MSC_GDPS_NetShortwaveRadiationFlux-Accum_Sfc_LatLon0.15_PT219H.grib2 2026-04-28 04:40 882K
20260428T00Z_MSC_GDPS_O3MixingRatio_LatLon0.15_PT219H.grib2 2026-04-28 04:55 2.2M
20260428T00Z_MSC_GDPS_O3_EAtm_LatLon0.15_PT219H.grib2 2026-04-28 04:55 2.4M
20260428T00Z_MSC_GDPS_PlanetaryBoundaryLayerHeight_Sfc_LatLon0.15_PT219H.grib2 2026-04-28 04:40 2.5M
20260428T00Z_MSC_GDPS_Precip-Accum_Sfc_LatLon0.15_PT219H.grib2 2026-04-28 04:40 5.5M
20260428T00Z_MSC_GDPS_PrecipRate_Sfc_LatLon0.15_PT219H.grib2 2026-04-28 04:40 2.9M
20260428T00Z_MSC_GDPS_Pressure_MSL_LatLon0.15_PT219H.grib2 2026-04-28 04:40 823K
20260428T00Z_MSC_GDPS_Pressure_Sfc_LatLon0.15_PT219H.grib2 2026-04-28 04:40 1.1M
20260428T00Z_MSC_GDPS_RadiativeTemp_Sfc_LatLon0.15_PT219H.grib2 2026-04-28 04:40 496K
20260428T00Z_MSC_GDPS_Rain-Accum_Sfc_LatLon0.15_PT219H.grib2 2026-04-28 04:40 4.3M
20260428T00Z_MSC_GDPS_RelativeHumidity_AGL-2m_LatLon0.15_PT219H.grib2 2026-04-28 04:40 1.1M
20260428T00Z_MSC_GDPS_Runoff-Accum_Sfc_LatLon0.15_PT219H.grib2 2026-04-28 04:40 136K
20260428T00Z_MSC_GDPS_SensibleHeatNetFlux_Sfc_LatLon0.15_PT219H.grib2 2026-04-28 04:40 465K
20260428T00Z_MSC_GDPS_Snow-Accum_Sfc_LatLon0.15_PT219H.grib2 2026-04-28 04:40 2.2M
20260428T00Z_MSC_GDPS_SnowDepth_Sfc_LatLon0.15_PT219H.grib2 2026-04-28 04:40 1.7M
20260428T00Z_MSC_GDPS_SoilTemp_DBS-0to10cm_LatLon0.15_PT219H.grib2 2026-04-28 04:40 512K
20260428T00Z_MSC_GDPS_SoilTemp_Sfc_LatLon0.15_PT219H.grib2 2026-04-28 04:40 570K
20260428T00Z_MSC_GDPS_SoilVolumetricWaterContent_DBS-0to10cm_LatLon0.15_PT219H.grib2 2026-04-28 04:40 594K
20260428T00Z_MSC_GDPS_SoilVolumetricWaterContent_DBS-0to1cm_LatLon0.15_PT219H.grib2 2026-04-28 04:40 648K
20260428T00Z_MSC_GDPS_SpecificHumidity_AGL-120m_LatLon0.15_PT219H.grib2 2026-04-28 04:40 1.1M
20260428T00Z_MSC_GDPS_SpecificHumidity_AGL-2m_LatLon0.15_PT219H.grib2 2026-04-28 04:40 1.2M
20260428T00Z_MSC_GDPS_SpecificHumidity_AGL-40m_LatLon0.15_PT219H.grib2 2026-04-28 04:40 1.1M
20260428T00Z_MSC_GDPS_SpecificHumidity_AGL-80m_LatLon0.15_PT219H.grib2 2026-04-28 04:40 1.1M
20260428T00Z_MSC_GDPS_SpecificHumidity_IsbL-0001_LatLon0.15_PT219H.grib2 2026-04-28 04:40 1.1M
20260428T00Z_MSC_GDPS_SpecificHumidity_IsbL-0005_LatLon0.15_PT219H.grib2 2026-04-28 04:40 1.0M
20260428T00Z_MSC_GDPS_SpecificHumidity_IsbL-0500_LatLon0.15_PT219H.grib2 2026-04-28 04:40 1.5M
20260428T00Z_MSC_GDPS_SpecificHumidity_IsbL-0700_LatLon0.15_PT219H.grib2 2026-04-28 04:40 1.6M
20260428T00Z_MSC_GDPS_SpecificHumidity_IsbL-0850_LatLon0.15_PT219H.grib2 2026-04-28 04:40 1.9M
20260428T00Z_MSC_GDPS_SpecificHumidity_IsbL-0925_LatLon0.15_PT219H.grib2 2026-04-28 04:40 1.9M
20260428T00Z_MSC_GDPS_SpecificHumidity_IsbL-1000_LatLon0.15_PT219H.grib2 2026-04-28 04:40 1.5M
20260428T00Z_MSC_GDPS_SpecificHumidity_Sfc_LatLon0.15_PT219H.grib2 2026-04-28 04:40 641K
20260428T00Z_MSC_GDPS_Thickness_IsbL-0850to0700_LatLon0.15_PT219H.grib2 2026-04-28 04:40 470K
20260428T00Z_MSC_GDPS_Thickness_IsbL-1000to0500_LatLon0.15_PT219H.grib2 2026-04-28 04:40 376K
20260428T00Z_MSC_GDPS_Thickness_IsbL-1000to0850_LatLon0.15_PT219H.grib2 2026-04-28 04:40 489K
20260428T00Z_MSC_GDPS_TotalCloudCover_Sfc_LatLon0.15_PT219H.grib2 2026-04-28 04:40 832K
20260428T00Z_MSC_GDPS_UVIndex-ClearSky_Sfc_LatLon0.15_PT219H.grib2 2026-04-28 04:55 1.0M
20260428T00Z_MSC_GDPS_UVIndex_Sfc_LatLon0.15_PT219H.grib2 2026-04-28 04:55 1.5M
20260428T00Z_MSC_GDPS_UpwardLongwaveRadiationFlux_NTAtm_LatLon0.15_PT219H.grib2 2026-04-28 04:40 1.1M
20260428T00Z_MSC_GDPS_VerticalVelocity_IsbL-0500_LatLon0.15_PT219H.grib2 2026-04-28 04:40 1.0M
20260428T00Z_MSC_GDPS_VerticalVelocity_IsbL-0700_LatLon0.15_PT219H.grib2 2026-04-28 04:40 1.4M
20260428T00Z_MSC_GDPS_VerticalVelocity_IsbL-0850_LatLon0.15_PT219H.grib2 2026-04-28 04:40 1.3M
20260428T00Z_MSC_GDPS_WindDir_AGL-10m_LatLon0.15_PT219H.grib2 2026-04-28 04:40 1.3M
20260428T00Z_MSC_GDPS_WindDir_AGL-120m_LatLon0.15_PT219H.grib2 2026-04-28 04:40 1.3M
20260428T00Z_MSC_GDPS_WindDir_AGL-40m_LatLon0.15_PT219H.grib2 2026-04-28 04:40 1.4M
20260428T00Z_MSC_GDPS_WindDir_AGL-80m_LatLon0.15_PT219H.grib2 2026-04-28 04:40 1.3M
20260428T00Z_MSC_GDPS_WindDir_IsbL-0001_LatLon0.15_PT219H.grib2 2026-04-28 04:40 666K
20260428T00Z_MSC_GDPS_WindDir_IsbL-0005_LatLon0.15_PT219H.grib2 2026-04-28 04:40 803K
20260428T00Z_MSC_GDPS_WindDir_IsbL-0500_LatLon0.15_PT219H.grib2 2026-04-28 04:40 1.4M
20260428T00Z_MSC_GDPS_WindDir_IsbL-0700_LatLon0.15_PT219H.grib2 2026-04-28 04:40 1.6M
20260428T00Z_MSC_GDPS_WindDir_IsbL-0850_LatLon0.15_PT219H.grib2 2026-04-28 04:40 1.9M
20260428T00Z_MSC_GDPS_WindDir_IsbL-0925_LatLon0.15_PT219H.grib2 2026-04-28 04:40 1.9M
20260428T00Z_MSC_GDPS_WindDir_IsbL-1000_LatLon0.15_PT219H.grib2 2026-04-28 04:40 2.0M
20260428T00Z_MSC_GDPS_WindGust-Max_AGL-10m_LatLon0.15_PT219H.grib2 2026-04-28 04:40 1.8M
20260428T00Z_MSC_GDPS_WindGust-Min_AGL-10m_LatLon0.15_PT219H.grib2 2026-04-28 04:40 2.1M
20260428T00Z_MSC_GDPS_WindGust_AGL-10m_LatLon0.15_PT219H.grib2 2026-04-28 04:40 2.1M
20260428T00Z_MSC_GDPS_WindSpeed_AGL-10m_LatLon0.15_PT219H.grib2 2026-04-28 04:40 1.1M
20260428T00Z_MSC_GDPS_WindSpeed_AGL-120m_LatLon0.15_PT219H.grib2 2026-04-28 04:40 1.2M
20260428T00Z_MSC_GDPS_WindSpeed_AGL-40m_LatLon0.15_PT219H.grib2 2026-04-28 04:40 1.2M
20260428T00Z_MSC_GDPS_WindSpeed_AGL-80m_LatLon0.15_PT219H.grib2 2026-04-28 04:40 1.2M
20260428T00Z_MSC_GDPS_WindSpeed_IsbL-0001_LatLon0.15_PT219H.grib2 2026-04-28 04:40 653K
20260428T00Z_MSC_GDPS_WindSpeed_IsbL-0005_LatLon0.15_PT219H.grib2 2026-04-28 04:40 690K
20260428T00Z_MSC_GDPS_WindSpeed_IsbL-0500_LatLon0.15_PT219H.grib2 2026-04-28 04:40 1.1M
20260428T00Z_MSC_GDPS_WindSpeed_IsbL-0700_LatLon0.15_PT219H.grib2 2026-04-28 04:40 1.5M
20260428T00Z_MSC_GDPS_WindSpeed_IsbL-0850_LatLon0.15_PT219H.grib2 2026-04-28 04:40 1.7M
20260428T00Z_MSC_GDPS_WindSpeed_IsbL-0925_LatLon0.15_PT219H.grib2 2026-04-28 04:40 1.8M
20260428T00Z_MSC_GDPS_WindSpeed_IsbL-1000_LatLon0.15_PT219H.grib2 2026-04-28 04:40 1.9M
20260428T00Z_MSC_GDPS_WindU_AGL-10m_LatLon0.15_PT219H.grib2 2026-04-28 04:40 1.3M
20260428T00Z_MSC_GDPS_WindU_AGL-120m_LatLon0.15_PT219H.grib2 2026-04-28 04:40 1.0M
20260428T00Z_MSC_GDPS_WindU_AGL-40m_LatLon0.15_PT219H.grib2 2026-04-28 04:40 1.0M
20260428T00Z_MSC_GDPS_WindU_AGL-80m_LatLon0.15_PT219H.grib2 2026-04-28 04:40 1.0M
20260428T00Z_MSC_GDPS_WindU_IsbL-0001_LatLon0.15_PT219H.grib2 2026-04-28 04:40 507K
20260428T00Z_MSC_GDPS_WindU_IsbL-0005_LatLon0.15_PT219H.grib2 2026-04-28 04:40 687K
20260428T00Z_MSC_GDPS_WindU_IsbL-0500_LatLon0.15_PT219H.grib2 2026-04-28 04:40 1.1M
20260428T00Z_MSC_GDPS_WindU_IsbL-0700_LatLon0.15_PT219H.grib2 2026-04-28 04:40 1.2M
20260428T00Z_MSC_GDPS_WindU_IsbL-0850_LatLon0.15_PT219H.grib2 2026-04-28 04:40 1.4M
20260428T00Z_MSC_GDPS_WindU_IsbL-0925_LatLon0.15_PT219H.grib2 2026-04-28 04:40 1.5M
20260428T00Z_MSC_GDPS_WindU_IsbL-1000_LatLon0.15_PT219H.grib2 2026-04-28 04:40 1.4M
20260428T00Z_MSC_GDPS_WindV_AGL-10m_LatLon0.15_PT219H.grib2 2026-04-28 04:40 1.5M
20260428T00Z_MSC_GDPS_WindV_AGL-120m_LatLon0.15_PT219H.grib2 2026-04-28 04:40 965K
20260428T00Z_MSC_GDPS_WindV_AGL-40m_LatLon0.15_PT219H.grib2 2026-04-28 04:40 959K
20260428T00Z_MSC_GDPS_WindV_AGL-80m_LatLon0.15_PT219H.grib2 2026-04-28 04:40 964K
20260428T00Z_MSC_GDPS_WindV_IsbL-0001_LatLon0.15_PT219H.grib2 2026-04-28 04:40 718K
20260428T00Z_MSC_GDPS_WindV_IsbL-0005_LatLon0.15_PT219H.grib2 2026-04-28 04:40 859K
20260428T00Z_MSC_GDPS_WindV_IsbL-0500_LatLon0.15_PT219H.grib2 2026-04-28 04:40 1.1M
20260428T00Z_MSC_GDPS_WindV_IsbL-0700_LatLon0.15_PT219H.grib2 2026-04-28 04:40 1.2M
20260428T00Z_MSC_GDPS_WindV_IsbL-0850_LatLon0.15_PT219H.grib2 2026-04-28 04:40 1.4M
20260428T00Z_MSC_GDPS_WindV_IsbL-0925_LatLon0.15_PT219H.grib2 2026-04-28 04:40 1.4M
20260428T00Z_MSC_GDPS_WindV_IsbL-1000_LatLon0.15_PT219H.grib2 2026-04-28 04:40 1.4M